Location: Newark
(40.7500°N, 111.8667°W)
Time: 07:12:42
(UTC+00:00)

ISS - Visible Passes

Search period start: 20 July 2019 00:00
Search period end: 30 July 2019 00:00
Orbit: 409 x 418 km, 51.6° (Epoch: 20 July)

Date Brightness Start Highest point End Pass type
(mag) Time Alt. Az. Time Alt. Az. Time Alt. Az.
20 Jul -3.0 03:56:57 10° WSW 04:00:14 57° NNW 04:03:32 10° NE visible
20 Jul -0.6 05:35:16 10° NW 05:37:28 16° NNW 05:39:40 10° NNE visible
20 Jul -0.4 07:13:28 10° NNW 07:15:12 13° N 07:16:55 10° NE visible
20 Jul -1.3 08:49:42 10° NW 08:51:09 20° NNW 08:51:09 20° NNW visible
21 Jul -1.0 04:45:22 10° WNW 04:47:56 20° NNW 04:50:30 10° NNE visible
21 Jul -0.5 06:24:01 10° NNW 06:25:35 13° N 06:27:10 10° NNE visible
21 Jul -0.9 08:00:33 10° NNW 08:01:44 16° NNW 08:01:44 16° NNW visible
22 Jul -1.4 03:55:31 10° W 03:58:26 27° NNW 04:01:20 10° NE visible
22 Jul -0.6 05:34:18 10° NW 05:35:58 13° N 05:37:38 10° NNE visible
22 Jul -0.8 07:11:22 10° NNW 07:13:18 17° N 07:13:18 17° N visible
23 Jul -0.7 04:44:25 10° NW 04:46:21 14° N 04:48:18 10° NNE visible
23 Jul -0.8 06:22:09 10° NNW 06:24:06 14° N 06:25:09 13° NNE visible
24 Jul -0.8 03:54:27 10° WNW 03:56:46 17° NNW 03:59:04 10° NNE visible
24 Jul -0.7 05:32:47 10° NNW 05:34:28 13° N 05:36:09 10° NE visible
24 Jul -0.7 07:09:05 10° NW 07:09:54 15° NNW 07:09:54 15° NNW visible
25 Jul -0.7 04:43:13 10° NNW 04:44:49 13° N 04:46:24 10° NNE visible
25 Jul -1.1 06:19:53 10° NNW 06:21:57 20° N 06:21:57 20° N visible
26 Jul -0.8 03:53:25 10° NW 03:55:09 13° N 03:56:53 10° NNE visible
26 Jul -1.1 05:30:40 10° NNW 05:32:53 16° NNE 05:34:03 14° NE visible
26 Jul -0.4 07:06:49 10° NW 07:06:51 10° NW 07:06:51 10° NW visible
27 Jul -0.9 04:41:22 10° NNW 04:43:14 14° N 04:45:06 10° NE visible
27 Jul -1.2 06:17:32 10° NW 06:18:58 21° NNW 06:18:58 21° NNW visible
28 Jul -0.9 03:51:55 10° NNW 03:53:34 13° N 03:55:12 10° NNE visible
28 Jul -1.8 05:28:17 10° NW 05:31:08 25° NNE 05:31:08 25° NNE visible
29 Jul -1.4 04:39:03 10° NNW 04:41:32 19° NNE 04:43:18 13° ENE visible
29 Jul -1.0 06:15:16 10° NW 06:16:07 17° NW 06:16:07 17° NW visible
